Location: Lombray
(49.5154°N, 3.1089°E)
Time: 05:15:12
(UTC+00:00)

USA 234 - Pass Details

Date: 15 May 2026
Orbit: 1102 x 1106 km, 123.0° (Epoch: 4 January)

Event Time Altitude Azimuth Distance (km) Brightness Sun altitude
Rises 22:40:10 0° 58° (ENE) 3,926 6.4 -20.0°
Reaches altitude 10° 22:42:58 10° 68° (ENE) 2,965 5.6 -20.1°
Maximum altitude 22:48:46 33° 130° (SE) 1,768 3.9 -20.4°
Enters shadow 22:49:36 32° 145° (SE) 1,801 3.9 -20.4°
